Flag for Germany Weather past 2 weeks in Wertheim, Baden-Württemberg, Germany

Now
39 °F

Passing clouds.


Feels Like: 36 °F
Forecast: 39 / 51 °F
Wind: 3 mph from Southwest

Location: Wuerzburg

Current Time: Mar 31, 2015 at 1:05:17 AM

Latest Report: Mar 31, 2015 at 12:00 AM


Visibility: 34 mi

Pressure: 29.90 "Hg

Humidity: 65%

Dew point: 28 °F

Location of WertheimLocation

Historic Weather in Wertheim — Graph

°F

Wertheim temperature yesterday

Maximum temperature yesterday: 52 °F (at 12:00 AM)
Minimum temperature yesterday: 39 °F (at 11:00 PM)
Average temperature yesterday: 45 °F

Past Weeks' High & Low Weather Summary

 TemperatureHumidityPressure
High66 °F (Mar 25, 4:00 PM)100% (Mar 24, 7:00 AM)30.32 "Hg (Mar 24, 7:00 AM)
Low30 °F (Mar 24, 7:00 AM)26% (Mar 20, 3:00 PM)29.41 "Hg (Mar 29, 11:00 PM)
Average45 °F69%30.03 "Hg
* Reported Mar 15 11:00 PM — Midnight between Mar 30 and Mar 31, Wertheim, Weather by CustomWeather, © 2015

Note: Actual official high and low records may vary slightly from our data, if they occured in-between our weather recording intervals... More about our weather records

Advertising

Wertheim weather history for previous 24 hours

 ConditionsComfort  
Time TempWeatherWind HumidityBarometerVisibility
12:00 AM
Tue, Mar 31
39 °FPassing clouds.3 mph65%29.90 "Hg34 mi
11:00 PM
Mon, Mar 30
39 °FPassing clouds.2 mph68%29.92 "Hg34 mi
10:00 PM40 °FPassing clouds.2 mph63%29.93 "Hg34 mi
9:00 PM42 °FPassing clouds.5 mph59%29.92 "Hg34 mi
8:00 PM44 °FPassing clouds.8 mph51%29.89 "Hg34 mi
7:00 PM45 °FPartly sunny.7 mph55%29.85 "Hg34 mi
6:00 PM45 °FPartly sunny.7 mph57%29.81 "Hg34 mi
5:00 PM48 °FPartly sunny.15 mph43%29.77 "Hg37 mi
4:00 PM49 °FPartly sunny.12 mph43%29.74 "Hg37 mi
3:00 PM50 °FPassing clouds.14 mph55%29.70 "Hg37 mi
2:00 PM49 °FScattered clouds.9 mph45%29.68 "Hg37 mi
1:00 PM48 °FScattered clouds.13 mph63%29.66 "Hg37 mi
12:00 PM47 °FPartly sunny.12 mph54%29.64 "Hg28 mi
11:00 AM45 °FOvercast.8 mph65%29.63 "Hg28 mi
10:00 AM44 °FOvercast.9 mph66%29.60 "Hg28 mi
9:00 AM44 °FOvercast.10 mph74%29.57 "Hg28 mi
8:00 AM44 °FLight rain. Overcast.9 mph82%29.55 "Hg28 mi
7:00 AM44 °FLow clouds.8 mph84%29.50 "Hg12 mi
6:00 AM44 °FLight rain. Overcast.9 mph89%29.47 "Hg6 mi
4:00 AM45 °FOvercast.8 mph74%29.50 "Hg25 mi
3:00 AM45 °FLight rain. Overcast.10 mph78%29.50 "Hg25 mi
2:00 AM45 °FLight rain. Overcast.12 mph85%29.50 "Hg12 mi
1:00 AM44 °FRain. Overcast.13 mph87%29.47 "Hg5 mi
Weather by CustomWeather, © 2015

See weather overviewHow to use our weather pages